[[{"header":{"parameterUnit":"m.s-1","parameterCategory":1,"la1":30.2991,"la2":30.254,"lo1":-89.0895,"lo2":-89.0444,"dy":0.0017,"dx":0.0017,"nx":28,"ny":28,"refTime":"2024-08-09T09:00:00:Z","depth":0,"parameterNumber":2,"parameterNumberName":"U-component_of_WINDS"},"data":[0,0,0,0,0,0,0,0,0,0,0,0,0,0,0,0,0,0,0,0,0,0,0,0,0,0,0,0,0,0,0,0,0,0,0,0,0,0,0,0,0,0,0,0,0,0,0,0,0,0,0,0,0,0,0,0,0,0,0.7931,0.7932,0,0.8037,0.8038,0.804,0.8095,0.8095,0.8095,0.8095,0.8207,0.821,0.8213,0,0,0,0,0,0,0,0,0,0,0,0,0,0.7778,0.778,0.7931,0.7932,0.7934,0.8037,0.8039,0.804,0.8095,0.8095,0.8095,0.8095,0.8206,0.821,0.8213,0,0,0,0,0,0,0,0,0,0,0,0,0,0.786,0.7781,0.7931,0.7973,0.7978,0.8037,0.8039,0.804,0.8095,0.8095,0.8095,0.8095,0.8205,0.8209,0.8214,0.8239,0,0,0.8227,0.8229,0,0,0,0,0,0,0,0,0.7856,0.7866,0.7966,0.7971,0.7976,0.8053,0.8026,0.8107,0.8095,0.8051,0.8095,0.8095,0.8156,0.8164,0.8184,0.8244,0.8249,0.8227,0.823,0.8232,0.8233,0,0,0,0,0,0,0,0.785,0.7862,0.7973,0.7967,0.7973,0.7988,0.8,0.8041,0.8102,0.8054,0.8059,0.807,0.8159,0.818,0.8187,0.8251,0.8227,0.8231,0.8234,0.8236,0.8336,0.8336,0,0,0,0,0,0,0.7837,0.7856,0.797,0.7976,0.7915,0.7991,0.8004,0.8028,0.8101,0.8112,0.807,0.8073,0.8172,0.8182,0.8191,0.8225,0.8232,0.8236,0.8238,0.8336,0.8336,0.8336,0,0,0,0,0,0,0.7833,0.7846,0.7966,0.7918,0.7934,0.7993,0.802,0.803,0.8051,0.8113,0.8124,0.808,0.8173,0.8185,0.8226,0.823,0.8238,0.8242,0.8336,0.8336,0.8336,0.8293,0,0,0,0,0,0,0.7829,0.7845,0.7855,0.7917,0.7936,0.7998,0.802,0.8032,0.8058,0.8062,0.8126,0.8136,0.8174,0.8219,0.823,0.8236,0.8245,0.8336,0.8336,0.8336,0.8294,0.8291,0.8289,0,0,0,0,0,0.7823,0.7839,0.7855,0.7868,0.7949,0.7998,0.8009,0.805,0.8058,0.8069,0.8108,0.8134,0.8227,0.8223,0.8236,0.8243,0.8336,0.8336,0.8336,0.8295,0.8292,0.8289,0,0,0,0,0,0,0.7777,0.7848,0.7866,0.7903,0.7944,0.8007,0.8022,0.8046,0.8086,0.8088,0.8139,0.8153,0.8189,0.8221,0.8214,0.8271,0.8284,0.8287,0.8249,0.8246,0.8244,0.8235,0.8249,0,0,0,0,0,0.777,0.7803,0.7864,0.7891,0.791,0.7962,0.7985,0.8013,0.8058,0.8076,0.8118,0.8161,0.82,0.8225,0.8265,0.8299,0.8313,0.831,0.8307,0.8305,0.8307,0.8326,0.8325,0.8336,0.8336,0.8336,0,0,0.7759,0.7802,0.7819,0.7882,0.7917,0.795,0.7976,0.801,0.8035,0.8081,0.8122,0.8155,0.8206,0.8244,0.8262,0.8271,0.8307,0.8305,0.8303,0.8306,0.8326,0.8325,0.8324,0.8336,0.8336,0.8336,0,0,0.7753,0.7789,0.7815,0.7849,0.7901,0.7935,0.7941,0.8,0.8023,0.8065,0.8099,0.8131,0.8197,0.8232,0.8258,0.8265,0.829,0.8276,0.8263,0.8281,0.828,0.828,0.8282,0.8282,0.8278,0.8278,0.8278,0,0.7732,0.7782,0.7825,0.7857,0.7884,0.7925,0.7951,0.7983,0.8045,0.8063,0.8071,0.8154,0.8192,0.8238,0.8239,0.8259,0.8268,0.8269,0.8277,0.8277,0.8277,0.8279,0.828,0.8276,0.8276,0.8276,0.8276,0,0.7754,0.7788,0.7802,0.786,0.7888,0.7917,0.7965,0.7989,0.8014,0.8048,0.8089,0.8136,0.8184,0.8198,0.8224,0.8247,0.825,0.8267,0.8281,0.8273,0.8276,0.8278,0.8273,0.8273,0.8274,0.8275,0,0,0.7723,0.7803,0.7807,0.7834,0.7893,0.7921,0.7952,0.7998,0.8017,0.8059,0.8086,0.814,0.8155,0.8185,0.8216,0.8232,0.8233,0.8247,0.8249,0.8242,0.8261,0.8247,0.8248,0.825,0.825,0.8251,0.8256,0,0.7726,0.7782,0.7821,0.7862,0.7894,0.7933,0.796,0.7999,0.8031,0.8064,0.8099,0.8137,0.8154,0.8172,0.819,0.8229,0.8238,0.8229,0.8276,0.8277,0.8261,0.8249,0.8236,0.8239,0.8258,0.8258,0.8258,0,0.7737,0.7776,0.7819,0.7874,0.7889,0.7913,0.7958,0.7988,0.8034,0.8056,0.8088,0.8119,0.8153,0.8164,0.8212,0.8206,0.8227,0.8249,0.825,0.8256,0.8267,0.8254,0.8241,0.8241,0.826,0.826,0.826,0,0.771,0.7773,0.7807,0.7828,0.7894,0.7909,0.7937,0.7983,0.8008,0.8047,0.8064,0.8108,0.8132,0.8165,0.8207,0.8211,0.825,0.8265,0.827,0.8268,0.8276,0.8275,0.8265,0.829,0.829,0.829,0.829,0,0.7709,0.7734,0.7795,0.7816,0.7845,0.789,0.7917,0.7949,0.7989,0.8017,0.8054,0.808,0.8133,0.8166,0.8199,0.8233,0.8244,0.8262,0.8271,0.8259,0.8256,0.8274,0.8274,0.829,0.829,0.829,0.829,0,0.7683,0.7725,0.7765,0.7823,0.7838,0.7857,0.7907,0.7929,0.7962,0.7997,0.8007,0.806,0.81,0.8144,0.8199,0.8222,0.8253,0.8266,0.8237,0.8242,0.8244,0.8243,0.8244,0.8247,0.827,0.827,0.827,0,0.768,0.77,0.776,0.778,0.7807,0.784,0.7865,0.791,0.7935,0.7988,0.8003,0.8045,0.8081,0.8143,0.8186,0.8228,0.8242,0.8239,0.8248,0.8235,0.8241,0.8239,0.8241,0.8237,0.8236,0.8236,0.8236,0,0.7669,0.7689,0.7723,0.7765,0.7793,0.7828,0.7865,0.788,0.7932,0.7958,0.7998,0.8026,0.8081,0.8122,0.8169,0.8199,0.8226,0.8232,0.8235,0.8223,0.8205,0.8214,0.823,0.8232,0.8232,0.8233,0.8233,0.8233,0.7655,0.7674,0.7718,0.7755,0.7787,0.782,0.7843,0.7878,0.7912,0.7959,0.7984,0.8024,0.8068,0.8134,0.8163,0.8195,0.8203,0.8208,0.8209,0.821,0.8206,0.82,0.8203,0.8204,0.8204,0.8204,0.8204,0,0.7645,0.7676,0.7709,0.7758,0.7787,0.7808,0.785,0.7873,0.7907,0.7945,0.7979,0.8025,0.8065,0.8111,0.8154,0.817,0.8183,0.818,0.8179,0.8185,0.8196,0.8189,0.8168,0.8168,0.8168,0.8168,0.8168,0.8168,0.7644,0.7677,0.7701,0.775,0.7781,0.7819,0.784,0.7871,0.7902,0.7951,0.7983,0.8013,0.8054,0.81,0.8138,0.815,0.8164,0.8157,0.8173,0.8182,0.8185,0.8188,0.8181,0.8159,0.8159,0.8159,0.8159,0.8159]},{"header":{"parameterUnit":"m.s-1","parameterCategory":1,"la1":30.2991,"la2":30.254,"lo1":-89.0895,"lo2":-89.0444,"dy":0.0017,"dx":0.0017,"nx":28,"ny":28,"refTime":"2024-08-09T09:00:00:Z","depth":0,"parameterNumber":3,"parameterNumberName":"V-component_of_WINDS"},"data":[0,0,0,0,0,0,0,0,0,0,0,0,0,0,0,0,0,0,0,0,0,0,0,0,0,0,0,0,0,0,0,0,0,0,0,0,0,0,0,0,0,0,0,0,0,0,0,0,0,0,0,0,0,0,0,0,0,0,2.4075,2.4075,0,2.407,2.407,2.407,2.4054,2.4053,2.4053,2.4053,2.4044,2.4044,2.4044,0,0,0,0,0,0,0,0,0,0,0,0,0,2.4067,2.4068,2.4075,2.4075,2.4075,2.407,2.407,2.407,2.4054,2.4053,2.4053,2.4052,2.4044,2.4044,2.4044,0,0,0,0,0,0,0,0,0,0,0,0,0,2.4067,2.4068,2.4075,2.4067,2.4066,2.407,2.407,2.407,2.4054,2.4053,2.4053,2.4052,2.4044,2.4044,2.4044,2.4055,0,0,2.4044,2.4044,0,0,0,0,0,0,0,0,2.4067,2.4067,2.4068,2.4067,2.4066,2.4062,2.4064,2.4065,2.4054,2.4058,2.4053,2.4052,2.405,2.405,2.405,2.4055,2.4054,2.4044,2.4044,2.4044,2.4044,0,0,0,0,0,0,0,2.4067,2.4068,2.4073,2.4068,2.4067,2.4061,2.4061,2.4064,2.4057,2.4058,2.4057,2.4056,2.4049,2.4049,2.4049,2.4054,2.4044,2.4044,2.4045,2.4045,2.4064,2.4064,0,0,0,0,0,0,2.4069,2.4068,2.4073,2.4073,2.4066,2.4062,2.4061,2.4064,2.4057,2.4055,2.4057,2.4056,2.405,2.4049,2.4049,2.4059,2.4044,2.4045,2.4045,2.4063,2.4064,2.4064,0,0,0,0,0,0,2.4069,2.407,2.4073,2.407,2.407,2.4063,2.4066,2.4064,2.4064,2.4056,2.4054,2.4058,2.4049,2.4049,2.4053,2.4058,2.4045,2.4045,2.4063,2.4063,2.4064,2.4081,0,0,0,0,0,0,2.4069,2.407,2.4075,2.407,2.407,2.4079,2.4066,2.4064,2.4065,2.4063,2.4057,2.4056,2.4049,2.4053,2.4053,2.4058,2.4045,2.4062,2.4063,2.4064,2.408,2.4082,2.4084,0,0,0,0,0,2.4069,2.408,2.4076,2.4076,2.4077,2.408,2.408,2.4072,2.4065,2.407,2.4064,2.4056,2.4058,2.4053,2.4054,2.4059,2.4062,2.4063,2.4064,2.4079,2.4081,2.4084,0,0,0,0,0,0,2.4086,2.408,2.4074,2.4085,2.4083,2.4077,2.4083,2.4076,2.4075,2.4073,2.4063,2.4062,2.4067,2.4063,2.4058,2.4067,2.4058,2.4059,2.4069,2.4072,2.4074,2.4074,2.4045,0,0,0,0,0,2.4091,2.4095,2.4089,2.4099,2.4098,2.409,2.4091,2.4085,2.4082,2.4081,2.4076,2.4073,2.4072,2.4072,2.4071,2.4079,2.4076,2.4082,2.4084,2.4086,2.4087,2.4088,2.409,2.4067,2.4067,2.4067,0,0,2.4102,2.4099,2.4102,2.4102,2.41,2.4102,2.409,2.4094,2.4094,2.4082,2.4085,2.4081,2.4076,2.4081,2.4083,2.4078,2.4092,2.4087,2.4089,2.4089,2.4089,2.4091,2.4093,2.4068,2.4068,2.4068,0,0,2.4122,2.4121,2.4128,2.4125,2.4122,2.4117,2.4118,2.4112,2.4109,2.4113,2.4102,2.4102,2.4102,2.4098,2.4096,2.4112,2.4103,2.4112,2.4122,2.4123,2.4125,2.4126,2.413,2.4131,2.4112,2.4112,2.4112,0,2.4135,2.414,2.4132,2.4136,2.4135,2.4123,2.4129,2.4126,2.4123,2.4121,2.4116,2.4114,2.411,2.4113,2.4116,2.4116,2.4115,2.4112,2.4125,2.4127,2.4128,2.4131,2.4133,2.4113,2.4113,2.4113,2.4113,0,2.4155,2.4158,2.4163,2.416,2.416,2.4164,2.4155,2.4156,2.4149,2.4143,2.4145,2.414,2.4136,2.4137,2.4131,2.4138,2.4134,2.4128,2.4118,2.4131,2.4134,2.4135,2.4115,2.4114,2.4114,2.4114,0,0,2.4187,2.4177,2.4179,2.4176,2.4171,2.4172,2.4175,2.4172,2.4171,2.4168,2.4169,2.4168,2.416,2.4158,2.4151,2.4152,2.4161,2.4144,2.4144,2.4146,2.4166,2.417,2.4172,2.4156,2.4156,2.4156,2.4166,0,2.4204,2.4209,2.4201,2.4207,2.4208,2.4196,2.4198,2.4193,2.4188,2.4186,2.4179,2.4178,2.417,2.4168,2.4168,2.416,2.4165,2.416,2.4154,2.4154,2.4155,2.4174,2.4179,2.4188,2.4167,2.4167,2.4167,0,2.4225,2.4223,2.4229,2.4221,2.4221,2.4223,2.4218,2.4218,2.4211,2.4206,2.4203,2.4194,2.4194,2.4185,2.4183,2.4179,2.4176,2.4172,2.4172,2.417,2.4161,2.4171,2.4191,2.4192,2.4169,2.4169,2.4169,0,2.4245,2.4244,2.4247,2.4245,2.4235,2.4237,2.4232,2.4226,2.4223,2.4219,2.4217,2.4212,2.4209,2.4205,2.4194,2.4189,2.4192,2.4183,2.4186,2.4187,2.4187,2.4187,2.4206,2.4187,2.4187,2.4187,2.4187,0,2.4264,2.4268,2.4255,2.4257,2.426,2.4249,2.4252,2.4247,2.424,2.4239,2.4228,2.4227,2.4214,2.421,2.4202,2.42,2.4199,2.4194,2.4191,2.4194,2.4195,2.4192,2.419,2.4188,2.4188,2.4188,2.4188,0,2.4287,2.4279,2.4281,2.4271,2.4269,2.4271,2.4262,2.4262,2.4255,2.4253,2.4252,2.4241,2.4236,2.4225,2.4217,2.4211,2.4211,2.4207,2.4213,2.4212,2.4215,2.4214,2.4232,2.4233,2.4215,2.4215,2.4215,0,2.4299,2.4302,2.4292,2.4291,2.4287,2.4286,2.4283,2.4272,2.427,2.4261,2.4262,2.4256,2.4251,2.4244,2.4233,2.4227,2.4222,2.4228,2.4221,2.4223,2.422,2.422,2.4219,2.423,2.423,2.423,2.4231,0,2.4321,2.4316,2.4314,2.4309,2.4307,2.4302,2.4297,2.4296,2.4284,2.4281,2.4277,2.4273,2.4264,2.4258,2.425,2.4243,2.4234,2.4233,2.4233,2.4236,2.4238,2.4235,2.4217,2.4232,2.4232,2.4232,2.4232,2.4232,2.4337,2.4338,2.4331,2.4328,2.4323,2.4318,2.4317,2.4309,2.4305,2.4298,2.4292,2.4287,2.4278,2.4265,2.4259,2.4254,2.425,2.4251,2.4251,2.4251,2.4251,2.424,2.4253,2.4253,2.4253,2.4253,2.4253,0,2.4357,2.4351,2.4349,2.4342,2.4339,2.4331,2.4324,2.4322,2.4318,2.4311,2.4306,2.4299,2.4293,2.4281,2.4273,2.4271,2.4267,2.4269,2.4269,2.4267,2.4256,2.4256,2.4273,2.4273,2.4273,2.4273,2.4273,2.4273,2.4367,2.4367,2.4361,2.4358,2.4352,2.4348,2.4344,2.4339,2.4333,2.4326,2.4321,2.4314,2.4304,2.4295,2.4288,2.4284,2.4281,2.4285,2.428,2.427,2.4268,2.4266,2.4266,2.4285,2.4285,2.4291,2.4291,2.4291]}]]